Time,TemperatureF,DewpointF,PressureIn,WindDirection,WindDirectionDegrees,WindSpeedMPH,WindSpeedGustMPH,Humidity,HourlyPrecipIn,Conditions,Clouds,dailyrainin,SoftwareType,DateUTC
2013-07-19 00:02:00,77.0,75.0,30.05,ENE,65,0.0,0.0,93,0.00,,,0.49,,2013-07-19 04:02:00,
2013-07-19 00:44:00,78.0,76.0,30.06,ENE,61,0.0,0.0,94,0.00,,,0.49,,2013-07-19 04:44:00,
2013-07-19 00:52:00,78.0,76.0,30.06,NE,49,0.0,0.0,94,0.00,,,0.49,,2013-07-19 04:52:00,
2013-07-19 01:43:00,78.0,76.0,30.05,NE,56,0.0,0.0,94,0.00,,,0.49,,2013-07-19 05:43:00,
2013-07-19 01:53:00,78.0,76.0,30.05,ENE,75,0.0,0.0,94,0.00,,,0.49,,2013-07-19 05:53:00,
2013-07-19 02:01:00,78.0,76.0,30.04,East,82,0.0,0.0,95,0.00,,,0.49,,2013-07-19 06:01:00,
2013-07-19 02:11:00,78.0,76.0,30.04,NNE,32,0.0,0.0,95,0.00,,,0.49,,2013-07-19 06:11:00,
2013-07-19 02:22:00,78.0,76.0,30.04,ENE,62,0.0,0.0,95,0.00,,,0.49,,2013-07-19 06:22:00,
2013-07-19 02:33:00,78.0,76.0,30.04,NE,49,0.0,0.0,95,0.00,,,0.49,,2013-07-19 06:33:00,
2013-07-19 02:43:00,78.0,76.0,30.03,East,79,0.0,0.0,95,0.00,,,0.49,,2013-07-19 06:43:00,
2013-07-19 02:52:00,79.0,77.0,30.03,ENE,75,0.0,0.0,95,0.00,,,0.49,,2013-07-19 06:52:00,
2013-07-19 03:01:00,79.0,77.0,30.03,ESE,118,0.0,0.0,95,0.00,,,0.49,,2013-07-19 07:01:00,
2013-07-19 03:12:00,79.0,77.0,30.03,ESE,117,0.0,0.0,95,0.00,,,0.49,,2013-07-19 07:12:00,
2013-07-19 03:22:00,79.0,77.0,30.03,East,90,0.0,0.0,95,0.00,,,0.49,,2013-07-19 07:22:00,
2013-07-19 03:32:00,79.0,77.0,30.03,SE,133,0.0,0.0,95,0.00,,,0.49,,2013-07-19 07:32:00,
2013-07-19 03:43:00,79.0,77.0,30.03,East,86,0.0,0.0,95,0.00,,,0.49,,2013-07-19 07:43:00,
2013-07-19 03:53:00,79.0,77.0,30.03,ESE,105,0.0,0.0,95,0.00,,,0.49,,2013-07-19 07:53:00,
2013-07-19 04:01:00,79.0,77.0,30.03,ESE,111,0.0,0.0,95,0.00,,,0.49,,2013-07-19 08:01:00,
2013-07-19 04:12:00,80.0,78.0,30.03,ESE,117,0.0,0.0,95,0.00,,,0.49,,2013-07-19 08:12:00,
2013-07-19 04:22:00,80.0,78.0,30.03,SE,144,0.0,0.0,95,0.00,,,0.49,,2013-07-19 08:22:00,
2013-07-19 04:33:00,80.0,78.0,30.03,East,88,0.0,0.0,95,0.00,,,0.49,,2013-07-19 08:33:00,
2013-07-19 04:43:00,80.0,78.0,30.03,SE,129,0.0,0.0,95,0.00,,,0.49,,2013-07-19 08:43:00,
2013-07-19 04:52:00,80.0,78.0,30.03,East,99,0.0,0.0,94,0.00,,,0.49,,2013-07-19 08:52:00,
2013-07-19 05:02:00,80.0,78.0,30.03,East,95,0.0,0.0,94,0.00,,,0.49,,2013-07-19 09:02:00,
2013-07-19 05:11:00,79.0,77.0,30.03,East,100,0.0,0.0,94,0.00,,,0.49,,2013-07-19 09:11:00,
2013-07-19 05:22:00,80.0,78.0,30.03,East,96,0.0,0.0,94,0.00,,,0.49,,2013-07-19 09:22:00,
2013-07-19 05:32:00,80.0,78.0,30.04,ESE,112,0.0,0.0,93,0.00,,,0.49,,2013-07-19 09:32:00,
2013-07-19 05:43:00,80.0,78.0,30.03,SE,129,0.0,0.0,93,0.00,,,0.49,,2013-07-19 09:43:00,
2013-07-19 05:52:00,80.0,78.0,30.03,SSE,149,0.0,0.0,93,0.00,,,0.49,,2013-07-19 09:52:00,
2013-07-19 06:43:00,80.0,77.0,30.04,East,90,0.0,0.0,92,0.00,,,0.49,,2013-07-19 10:43:00,
2013-07-19 06:52:00,80.0,77.0,30.04,East,92,0.0,0.0,92,0.00,,,0.49,,2013-07-19 10:52:00,
2013-07-19 07:02:00,80.0,77.0,30.04,ESE,115,0.0,0.0,92,0.00,,,0.49,,2013-07-19 11:02:00,
2013-07-19 07:43:00,80.0,77.0,30.05,ESE,109,0.0,0.0,92,0.00,,,0.49,,2013-07-19 11:43:00,
2013-07-19 07:52:00,81.0,78.0,30.05,SE,136,0.0,0.0,92,0.00,,,0.49,,2013-07-19 11:52:00,
2013-07-19 08:12:00,81.0,78.0,30.05,SE,142,0.0,0.0,92,0.00,,,0.49,,2013-07-19 12:12:00,
2013-07-19 08:22:00,81.0,78.0,30.06,East,98,0.0,0.0,92,0.00,,,0.49,,2013-07-19 12:22:00,
2013-07-19 08:33:00,81.0,78.0,30.06,SE,128,0.0,0.0,91,0.00,,,0.49,,2013-07-19 12:33:00,
2013-07-19 08:43:00,81.0,78.0,30.06,SE,127,0.0,0.0,91,0.00,,,0.49,,2013-07-19 12:43:00,
2013-07-19 08:52:00,81.0,78.0,30.06,ESE,109,0.0,0.0,91,0.00,,,0.49,,2013-07-19 12:52:00,
2013-07-19 09:12:00,81.0,78.0,30.07,SSE,153,0.0,0.0,90,0.00,,,0.49,,2013-07-19 13:12:00,
2013-07-19 09:22:00,82.0,79.0,30.07,ESE,106,0.0,0.0,90,0.00,,,0.37,,2013-07-19 13:22:00,
2013-07-19 09:32:00,82.0,79.0,30.06,SE,136,0.0,0.0,90,0.00,,,0.37,,2013-07-19 13:32:00,
2013-07-19 09:53:00,82.0,78.0,30.07,SE,127,0.0,0.0,89,0.00,,,0.37,,2013-07-19 13:53:00,
2013-07-19 10:43:00,83.0,79.0,30.08,ESE,121,0.0,0.0,87,0.00,,,0.37,,2013-07-19 14:43:00,
2013-07-19 10:52:00,83.0,78.0,30.08,SE,127,0.0,0.0,86,0.00,,,0.37,,2013-07-19 14:52:00,
2013-07-19 11:11:00,85.0,80.0,30.08,East,96,0.0,0.0,85,0.00,,,0.37,,2013-07-19 15:11:00,
2013-07-19 11:23:00,85.0,80.0,30.09,ESE,123,0.0,0.0,84,0.00,,,0.37,,2013-07-19 15:23:00,
2013-07-19 11:32:00,85.0,79.0,30.09,ESE,115,0.0,0.0,83,0.00,,,0.37,,2013-07-19 15:32:00,
2013-07-19 11:43:00,85.0,79.0,30.09,ESE,113,0.0,0.0,83,0.00,,,0.37,,2013-07-19 15:43:00,
2013-07-19 11:52:00,86.0,80.0,30.09,ESE,109,0.0,0.0,82,0.00,,,0.37,,2013-07-19 15:52:00,
2013-07-19 12:52:00,89.0,81.0,30.07,SE,129,0.0,0.0,77,0.00,,,0.03,,2013-07-19 16:52:00,
2013-07-19 13:02:00,88.0,80.0,30.07,SE,140,0.0,0.0,77,0.00,,,0.03,,2013-07-19 17:02:00,
2013-07-19 13:43:00,89.0,81.0,30.06,SE,134,0.0,0.0,77,0.00,,,0.03,,2013-07-19 17:43:00,
2013-07-19 13:52:00,89.0,80.0,30.06,ESE,108,0.0,0.0,76,0.00,,,0.03,,2013-07-19 17:52:00,
2013-07-19 15:01:00,90.0,81.0,30.05,ESE,119,0.0,0.0,76,0.00,,,0.03,,2013-07-19 19:01:00,
2013-07-19 15:52:00,90.0,81.0,30.04,ESE,123,0.0,0.0,75,0.00,,,0.03,,2013-07-19 19:52:00,
2013-07-19 16:01:00,90.0,81.0,30.04,ESE,103,0.0,0.0,75,0.00,,,0.03,,2013-07-19 20:01:00,
2013-07-19 16:22:00,90.0,81.0,30.03,East,98,0.0,0.0,76,0.00,,,0.03,,2013-07-19 20:22:00,
2013-07-19 16:33:00,90.0,81.0,30.03,ESE,123,0.0,0.0,76,0.00,,,0.03,,2013-07-19 20:33:00,
2013-07-19 16:43:00,90.0,81.0,30.02,ESE,104,0.0,0.0,76,0.00,,,0.03,,2013-07-19 20:43:00,
2013-07-19 16:52:00,89.0,80.0,30.02,SE,127,0.0,0.0,76,0.00,,,0.03,,2013-07-19 20:52:00,
2013-07-19 17:11:00,89.0,81.0,30.02,ESE,110,0.0,0.0,78,0.00,,,0.03,,2013-07-19 21:11:00,
2013-07-19 17:22:00,89.0,81.0,30.02,ENE,76,0.0,0.0,77,0.00,,,0.02,,2013-07-19 21:22:00,
2013-07-19 17:32:00,88.0,80.0,30.02,ESE,119,0.0,0.0,78,0.00,,,0.02,,2013-07-19 21:32:00,
2013-07-19 17:42:00,87.0,80.0,30.01,SE,130,0.0,0.0,79,0.00,,,0.02,,2013-07-19 21:42:00,
2013-07-19 17:52:00,87.0,80.0,30.01,ENE,77,0.0,0.0,79,0.00,,,0.02,,2013-07-19 21:52:00,
2013-07-19 18:42:00,87.0,80.0,30.01,SSW,195,0.0,0.0,80,0.00,,,0.00,,2013-07-19 22:42:00,
2013-07-19 18:52:00,86.0,79.0,30.01,ESE,114,0.0,0.0,81,0.00,,,0.00,,2013-07-19 22:52:00,
2013-07-19 19:11:00,85.0,79.0,30.00,East,88,0.0,0.0,82,0.00,,,0.00,,2013-07-19 23:11:00,
2013-07-19 19:33:00,85.0,79.0,30.00,ESE,114,0.0,0.0,83,0.00,,,0.00,,2013-07-19 23:33:00,
2013-07-19 19:43:00,85.0,80.0,30.00,East,100,0.0,0.0,84,0.00,,,0.00,,2013-07-19 23:43:00,
2013-07-19 19:52:00,84.0,79.0,30.01,East,96,0.0,0.0,85,0.00,,,0.00,,2013-07-19 23:52:00,
2013-07-19 20:01:00,84.0,79.0,30.01,SE,139,0.0,0.0,85,0.00,,,0.00,,2013-07-20 00:01:00,
2013-07-19 20:11:00,84.0,79.0,30.02,ESE,119,0.0,0.0,85,0.00,,,0.00,,2013-07-20 00:11:00,
2013-07-19 20:22:00,84.0,79.0,30.02,ESE,113,0.0,0.0,86,0.00,,,0.00,,2013-07-20 00:22:00,
2013-07-19 20:32:00,83.0,78.0,30.02,ENE,76,0.0,0.0,86,0.00,,,0.00,,2013-07-20 00:32:00,
2013-07-19 20:43:00,83.0,78.0,30.02,ESE,104,0.0,0.0,86,0.00,,,0.00,,2013-07-20 00:43:00,
2013-07-19 20:52:00,83.0,78.0,30.03,SE,131,0.0,0.0,86,0.00,,,0.00,,2013-07-20 00:52:00,
2013-07-19 21:01:00,83.0,78.0,30.04,SE,129,0.0,0.0,86,0.00,,,0.00,,2013-07-20 01:01:00,
2013-07-19 21:11:00,83.0,79.0,30.05,ESE,111,0.0,0.0,87,0.00,,,0.00,,2013-07-20 01:11:00,
2013-07-19 21:22:00,83.0,79.0,30.06,ESE,105,0.0,0.0,87,0.00,,,0.00,,2013-07-20 01:22:00,
2013-07-19 21:32:00,83.0,78.0,30.06,ESE,118,0.0,0.0,86,0.00,,,0.00,,2013-07-20 01:32:00,
2013-07-19 21:52:00,83.0,79.0,30.06,ESE,119,0.0,0.0,87,0.00,,,0.00,,2013-07-20 01:52:00,
2013-07-19 22:02:00,83.0,79.0,30.07,ESE,121,0.0,0.0,87,0.00,,,0.00,,2013-07-20 02:02:00,
2013-07-19 22:11:00,83.0,79.0,30.07,ESE,122,0.0,0.0,87,0.00,,,0.00,,2013-07-20 02:11:00,
2013-07-19 22:22:00,83.0,79.0,30.07,East,79,0.0,0.0,87,0.00,,,0.00,,2013-07-20 02:22:00,
2013-07-19 22:33:00,83.0,79.0,30.07,ESE,122,0.0,0.0,88,0.00,,,0.00,,2013-07-20 02:33:00,
2013-07-19 22:43:00,83.0,79.0,30.07,ESE,121,0.0,0.0,89,0.00,,,0.00,,2013-07-20 02:43:00,
2013-07-19 22:52:00,83.0,79.0,30.07,SE,136,0.0,0.0,89,0.00,,,0.00,,2013-07-20 02:52:00,
2013-07-19 23:12:00,82.0,78.0,30.08,SE,132,0.0,0.0,89,0.00,,,0.00,,2013-07-20 03:12:00,
2013-07-19 23:22:00,82.0,79.0,30.08,ESE,117,0.0,0.0,90,0.00,,,0.00,,2013-07-20 03:22:00,
2013-07-19 23:32:00,82.0,79.0,30.07,East,92,0.0,0.0,90,0.00,,,0.00,,2013-07-20 03:32:00,
2013-07-19 23:53:00,82.0,79.0,30.07,SE,133,0.0,0.0,90,0.00,,,0.00,,2013-07-20 03:53:00,